Starlink 2109

operational
NORAD ID: 47388 Int'l Des: 2021-005 Owner: SPXS Country: US Constellation: starlink
LEOCIRCULARSTARLINK_TYPE

Über Starlink 2109

Beschreibung wird geladen...

Live-Position

3D-Globus wird geladen...

Nächste Überflüge

Höhenverlauf

Altitude vs Time

uPlot chart will show altitude changes over time

Zweizeiliger Elementsatz

1 47388U 21005AR 26062.30477160 .00001361 00000-0 11025-3 0 9995
2 47388 53.0551 90.2826 0001404 94.6592 265.4557 15.06401641282073
Epoch: 3. März 2026 • Age: 22 hours

Aktueller Status

Höhe 547.5 km
Geschwindigkeit 7.59 km/s
Subsatellitenpunkt 5.24°N, 35.26°W
Startdatum 20. Jan. 2021
Alter 5.1 years
Typ internet

Technische Details

Klassifizierung Payload
Masse 260.00 kg
Trockenmasse 248.00 kg
Gesamtmasse 260.00 kg
Länge 0.20 m
Durchmesser 2.80 m
Spannweite 9.00 m
Form Box + pan
Hersteller SPXS
Bus-Typ Starlink
Phasenstatus In Orbit
Besitzer/Staat SPXS/US

Große Konstellationen

Loading constellations...